Torna al catalogo

CZ-6A DEB

AttivoSSO
NORAD 55892·DEBRIS·🇨🇳 China

Lanciato Nov 11, 2022 da Taiyuan Satellite Launch Center

Loading…

Prossimi Passaggi (prossime 24 ore)

TLE

In scadenzaSource: Space-Track

Epoca: Sep 3, 2026, 20:59 UTC

1 55892U 22151AAQ 26246.87499672  .00001046  00000-0  69108-3 0  9990
2 55892  98.8593 212.2072 0126018 217.5829 141.6479 14.00008549188685

Traccia CZ-6A DEB in tempo reale con AllMySat

Download on the App Store